Regional Weather Roundup
Issued by NWS

Home | Current Version | Previous Version | Text Only | Print | Product List | Glossary Off
Versions: 1 2 3 4 5 6 7 8 9 10 11 12 13 14 15 16 17 18 19 20 21 22 23 24 25 26 27 28 29 30 31 32 33 34 35 36 37 38 39 40 41 42 43 44 45 46 47 48 49 50

590
ASUS43 KLMK 300610
RWRKY
KENTUCKY REGIONAL WEATHER ROUNDUP
NATIONAL WEATHER SERVICE LOUISVILLE KY
200 AM EDT SAT JUL 30 2016

NOTE "FAIR" INDICATES FEW OR NO CLOUDS BELOW 12,000 FEET
WITH NO SIGNIFICANT WEATHER AND/OR OBSTRUCTIONS TO VISIBILITY.

KYZ001>023-026-027-061>063-070>075-300700-
WESTERN AND SOUTH CENTRAL KENTUCKY

CITY           SKY/WX    TMP DP  RH WIND       PRES   REMARKS
PADUCAH        MOCLDY    72  70  93 W8        29.94R FOG
HENDERSON      PTCLDY    72  68  88 CALM      29.92S
OWENSBORO      PTCLDY    73  73 100 CALM      29.94R
HOPKINSVILLE   PTCLDY    73  71  96 CALM      29.95R
BOWLING GREEN  CLOUDY    74  70  87 CALM      29.94R
GLASGOW        CLEAR     73  73 100 CALM      29.94S
$$

KYZ024-025-028>034-038-045-046-053-300700-
NORTH CENTRAL KENTUCKY

CITY           SKY/WX    TMP DP  RH WIND       PRES   REMARKS
LOUISVILLE/SDF MOCLDY    75  71  87 SW5       29.91F
LOUISVILLE/LOU MOCLDY    75  72  90 SW3       29.92F
FORT KNOX      CLOUDY    70  69  97 SW2       29.92S
$$

KYZ035>037-039>044-047>052-055>060-089>105-300700-
NORTHEAST KENTUCKY

CITY           SKY/WX    TMP DP  RH WIND       PRES   REMARKS
LEXINGTON      CLOUDY    72  69  90 W6        29.96S
COVINGTON      CLOUDY    70  69  97 CALM      29.93F
FRANKFORT      CLOUDY    71  67  87 S6        29.93S
$$

KYZ054-064>069-076>088-106>120-300700-
SOUTHEAST KENTUCKY

CITY           SKY/WX    TMP DP  RH WIND       PRES   REMARKS
JACKSON        MOCLDY    70  68  93 CALM      29.98F
LONDON         LGT RAIN  71  68  90 CALM      29.98F
SOMERSET       PTCLDY    70  70 100 CALM      29.97F
MIDDLESBORO    CLOUDY    68  68 100 CALM      30.01F
MONTICELLO     CLOUDY   N/A N/A N/A NE7       29.98F
$$





USA.gov is the U.S. government's official web portal to all federal, state and local government web resources and services.